STARLINK-1255, 45399

Orbit data source: Space-Track

STARLINK-1255, 45399 is a payload satellite owned by SpaceX/Seattle (US) in LEO that was launched on Wed, 18 Mar 2020 UTC via an FALCON 9 launch vehicle from the Air Force Eastern Test Range (AFETR). Payload-class satellites include a variety of spacecraft equipped with specific instruments for various scientific and technological missions. These include communications satellites like Starlink; space stations such as the ISS; scientific satellites like the Hubble; Earth observation satellites from companies like Planet Labs, Umbra, and HawkEye 360; GPS; miniature CubeSats for education and research; and military/defense satellites.

Loading next visibility...
Identifier
45399, 2020-019AR
Orbit
LEO
Country
Flag of USUS
Related business
Manufacturer
SpaceX/Seattle
Mission
Partially operational Commercial Communications
Bus & Motor
STARLINK, Unknown motor
Mass
260 kg wet, ~248 kg dry
Launch date (UTC)
2020-03-18 (6 years ago)
Launch vehicle
FALCON 9
Launch site
Air Force Eastern Test Range (AFETR)
Object type
Payload
Rocket body
Debris
Shape & HBR
Box + 1 Pan, 10.1 m
Radar Cross Section
13.562 m², Large (>1 m²)

Expand to show TLE details & history
Last TLE update: 8 hours ago

TLE from 8 hours ago
0 STARLINK-1255
1 45399U 20019AR  26163.25778366  .00046708  00000-0  44753-3 0  9995
2 45399  53.0352   2.0599 0004334 126.3613 233.7802 15.66203103345195
Epoch: 2026-06-12T06:11Z
TLE epoch observation values (Epoch: 2026-06-12T06:11:12.508Z)
Latitude
-0.00002°
Longitude
8.66795°
Altitude
372.41 km
Speed
7.686 km/s
True Right ascension
00h 08m 14s
True Declination
0° 00' 00"
Sunlit
Object was in daylight at epoch
Visualization orbit readout
Latitude
Unknown
Longitude
Unknown
Altitude
Unknown
Speed
Unknown
Apparent Right ascension
Unknown
Apparent Declination
Unknown
Sunlit
N/A
Visualization observer readout
Local Sidereal Time
00:56:57
Azimuth
Unknown
Elevation
Unknown
Doppler factor
Unknown
Orbital elements
Apogee altitude
372.986 km
Perigee altitude
367.137 km
Semi-major axis
6,748.199 km
Eccentricity
0.00043
Inclination
53.0352°
RAAN
2.0599°
Arg. of periapsis
126.3613°
True anomaly
233.74015°
Mean anomaly
233.7802°
Eccentric anomaly
233.76017°
Mean motion
3.91527 °/min
Orbital period
91.95 mins
BSTAR
0.00044753
Loading maneuver chart data...
Computing Atmospheric mass density...

Documentation

Showing up to 5 results
|